Weather reports worldwide

Advertisment
Torino/Caselle, Italy (16059): temperature & dewpoint: 01.07.2020 20:00:00 - 07.07.2020 20:00:00 (CEST)Torino/Caselle, Italy (16059): wind speed: 01.07.2020 20:00:00 - 07.07.2020 20:00:00 (CEST)Torino/Caselle, Italy (16059): wind direction: 01.07.2020 20:00:00 - 07.07.2020 20:00:00 (CEST)Torino/Caselle, Italy (16059): reduced air pressure: 01.07.2020 20:00:00 - 07.07.2020 20:00:00 (CEST)Torino/Caselle, Italy (16059): visibility: 01.07.2020 20:00:00 - 07.07.2020 20:00:00 (CEST)Torino/Caselle, Italy (16059): precipitation: 01.07.2020 20:00:00 - 07.07.2020 20:00:00 (CEST)
Date & Time tt [°C] td [°C] ff [km/h] ff [kn] dd ppp [hPa] vv [km] rr [mm]
07.07.2020 20:00:00 23,2 15,7 5 3 NE 1016,1 10 -
07.07.2020 19:00:00 24,0 16,0 9 5 NNE - 10 -
07.07.2020 18:00:00 24,0 16,0 9 5 NNE - 10 -
07.07.2020 17:00:00 23,8 15,9 11 6 ENE 1016,7 10 0,0
07.07.2020 16:00:00 24,0 16,0 16 9 ENE - 10 -
07.07.2020 15:00:00 25,0 16,0 13 7 E - 10 -
07.07.2020 14:00:00 23,4 16,1 13 7 E 1017,4 10 -
07.07.2020 13:00:00 23,0 16,0 21 11 E - 10 -
07.07.2020 12:00:00 23,0 15,0 21 11 E - 10 -
07.07.2020 11:00:00 22,8 15,9 24 13 ENE 1017,2 10 0,0
07.07.2020 10:00:00 24,0 11,0 9 5 N - 10 -
07.07.2020 09:00:00 22,0 10,0 13 7 N - 10 -
07.07.2020 08:00:00 19,8 10,1 4 2 - 1014,9 10 -
07.07.2020 07:00:00 17,0 8,0 9 5 WNW - 10 -
07.07.2020 06:00:00 17,0 7,0 5 3 WNW - 10 -
07.07.2020 05:00:00 19,2 9,0 9 5 SSE 1011,4 10 0,0
07.07.2020 04:00:00 20,0 9,0 4 2 - - 10 -
07.07.2020 03:00:00 21,0 9,0 9 5 WNW - 10 -
07.07.2020 02:00:00 22,7 12,9 4 2 N 1009,7 25 -
07.07.2020 01:00:00 22,0 8,0 4 2 - - 10 -
07.07.2020 00:00:00 28,0 2,0 9 5 W - 10 -
06.07.2020 23:00:00 27,0 5,9 15 8 NW 1008,8 10 0,0
06.07.2020 22:00:00 29,0 6,0 15 8 W - 10 -
06.07.2020 21:00:00 28,0 22,0 8 4 NE - 10 -
06.07.2020 20:00:00 29,3 21,6 9 5 ENE 1007,6 10 -
06.07.2020 19:00:00 31,0 20,0 8 4 ESE - 10 -
06.07.2020 18:00:00 30,0 21,0 9 5 E - 10 -
06.07.2020 17:00:00 30,8 18,6 5 3 ESE 1008,3 10 0,0
06.07.2020 16:00:00 30,0 18,0 5 3 - - 10 -
06.07.2020 15:00:00 30,0 19,0 4 2 - - 10 -
06.07.2020 14:00:00 29,0 19,9 5 3 - 1010,1 10 -
06.07.2020 13:00:00 29,0 20,0 8 4 - - 10 -
06.07.2020 12:00:00 28,0 19,0 5 3 E - 10 -
06.07.2020 11:00:00 27,4 18,8 8 4 ESE 1011,9 10 0,0
06.07.2020 10:00:00 26,0 20,0 5 3 E - 10 -
06.07.2020 09:00:00 25,0 20,0 4 2 - - 10 -
06.07.2020 08:00:00 22,8 18,9 4 2 ESE 1012,9 10 -
06.07.2020 07:00:00 21,0 18,0 4 2 - - 10 -
06.07.2020 06:00:00 20,0 18,0 2 1 - - 10 -
06.07.2020 05:00:00 21,5 17,7 5 3 WNW 1013,6 10 0,0
06.07.2020 04:00:00 21,0 18,0 4 2 - - 10 -
06.07.2020 03:00:00 23,0 18,0 4 2 W - 10 -
06.07.2020 02:00:00 22,0 18,7 5 3 N 1014,8 10 -
06.07.2020 01:00:00 23,0 19,0 5 3 NNW - 10 -
06.07.2020 00:00:00 23,0 19,0 8 4 NNW - 10 -
05.07.2020 23:00:00 24,2 20,3 5 3 N 1015,2 10 0,0
05.07.2020 22:00:00 26,0 21,0 8 4 E - 10 -
05.07.2020 21:00:00 27,0 21,0 8 4 ENE - 10 -
05.07.2020 20:00:00 28,2 20,5 11 6 ENE 1014,7 10 -
05.07.2020 19:00:00 29,0 19,0 8 4 E - 10 -
05.07.2020 18:00:00 30,0 19,0 5 3 E - 10 -
05.07.2020 17:00:00 30,1 18,4 8 4 ESE 1015,9 10 0,0
05.07.2020 16:00:00 29,0 17,0 8 4 ESE - 10 -
05.07.2020 15:00:00 29,0 17,0 5 3 - - 10 -
05.07.2020 14:00:00 28,5 15,5 4 2 - 1017,9 10 -
05.07.2020 13:00:00 27,0 17,0 8 4 E - 10 -
05.07.2020 12:00:00 26,0 17,0 8 4 ESE - 10 -
05.07.2020 11:00:00 25,3 16,6 8 4 E 1018,6 10 0,0
05.07.2020 10:00:00 24,0 18,0 5 3 ESE - 10 -
05.07.2020 09:00:00 23,0 18,0 2 1 - - 10 -
05.07.2020 08:00:00 21,6 16,8 2 1 - 1018,3 10 -
05.07.2020 07:00:00 19,0 16,0 4 2 NW - 10 -
05.07.2020 06:00:00 19,0 15,0 5 3 NNW - 10 -
05.07.2020 05:00:00 18,8 15,7 5 3 WNW 1017,9 10 0,0
05.07.2020 04:00:00 18,0 16,0 4 2 - - 10 -
05.07.2020 03:00:00 19,0 16,0 5 3 WNW - 10 -
05.07.2020 02:00:00 20,5 16,6 5 3 WNW 1018,1 10 -
05.07.2020 01:00:00 20,0 16,0 5 3 NE - 10 -
05.07.2020 00:00:00 20,0 17,0 5 3 NE - 10 -
04.07.2020 23:00:00 23,1 16,3 9 5 WNW 1018,0 10 0,0
04.07.2020 22:00:00 25,0 15,0 9 5 WSW - 10 -
04.07.2020 21:00:00 26,0 14,0 8 4 SSW - 10 -
04.07.2020 20:00:00 27,2 15,6 4 2 - 1016,5 10 -
04.07.2020 19:00:00 28,0 15,0 8 4 WSW - 10 -
04.07.2020 18:00:00 28,0 15,0 5 3 S - 10 -
04.07.2020 17:00:00 27,8 15,7 4 2 - 1017,3 10 0,0
04.07.2020 16:00:00 27,0 15,0 9 5 ESE - 10 -
04.07.2020 15:00:00 27,0 13,0 5 3 - - 10 -
04.07.2020 14:00:00 26,1 12,3 5 3 - 1019,1 10 -
04.07.2020 13:00:00 26,0 15,0 4 2 - - 10 -
04.07.2020 12:00:00 25,0 15,0 5 3 S - 10 -
04.07.2020 11:00:00 24,4 15,5 4 2 - 1019,4 10 0,0
04.07.2020 10:00:00 22,0 16,0 4 2 - - 10 -
04.07.2020 09:00:00 20,0 15,0 4 2 - - 10 -
04.07.2020 08:00:00 18,7 15,0 2 1 - 1020,0 10 -
04.07.2020 07:00:00 15,0 15,0 4 2 N - 10 -
04.07.2020 06:00:00 15,0 14,0 4 2 - - 10 -
04.07.2020 05:00:00 15,4 14,1 5 3 W 1018,7 10 0,0
04.07.2020 04:00:00 16,0 15,0 8 4 WNW - 10 -
04.07.2020 03:00:00 16,0 15,0 9 5 NW - 10 -
04.07.2020 02:00:00 15,8 14,6 8 4 SE 1018,5 10 -
04.07.2020 01:00:00 16,0 15,0 9 5 S - 10 -
04.07.2020 00:00:00 18,0 14,0 16 9 NW - 10 -
03.07.2020 23:00:00 17,8 14,7 18 10 NW 1018,2 10 0,0
03.07.2020 22:00:00 17,0 15,0 16 9 WSW - 8 -
03.07.2020 21:00:00 17,0 15,0 21 11 SW - 10 -
03.07.2020 20:00:00 20,9 13,5 26 14 SSW 1014,2 10 -
03.07.2020 19:00:00 23,0 14,0 5 3 SSE - 10 -
03.07.2020 18:00:00 24,0 12,0 16 9 NW - 10 -
03.07.2020 17:00:00 24,1 12,8 22 12 NW 1012,1 10 0,0
03.07.2020 16:00:00 25,0 14,0 21 11 WNW - 10 -
03.07.2020 15:00:00 27,0 14,0 11 6 ENE - 10 -
03.07.2020 14:00:00 27,3 15,3 8 4 E 1013,1 10 -
03.07.2020 13:00:00 27,0 17,0 8 4 E - 10 -
03.07.2020 12:00:00 26,0 18,0 5 3 - - 10 -
03.07.2020 11:00:00 24,3 17,4 5 3 ESE 1013,4 10 0,0
03.07.2020 10:00:00 23,0 17,0 5 3 - - 10 -
03.07.2020 09:00:00 22,0 17,0 5 3 E - 10 -
03.07.2020 08:00:00 21,3 15,2 8 4 NNE 1013,3 10 -
03.07.2020 07:00:00 18,0 14,0 5 3 N - 10 -
03.07.2020 06:00:00 18,0 13,0 8 4 N - 10 -
03.07.2020 05:00:00 18,5 12,9 8 4 NNW 1011,8 10 0,0
03.07.2020 04:00:00 18,0 14,0 5 3 NNW - 10 -
03.07.2020 03:00:00 19,0 14,0 8 4 NNW - 10 -
03.07.2020 02:00:00 19,1 14,6 11 6 WNW 1012,4 10 -
03.07.2020 01:00:00 19,0 15,0 5 3 N - 10 -
03.07.2020 00:00:00 19,0 16,0 9 5 ENE - 10 -
02.07.2020 23:00:00 21,0 15,9 13 7 WNW 1010,5 10 0,0
02.07.2020 22:00:00 22,0 17,0 9 5 WNW - 10 -
02.07.2020 21:00:00 23,0 17,0 8 4 E - 10 -
02.07.2020 20:00:00 23,8 15,2 16 9 NW 1009,8 10 -
02.07.2020 19:00:00 23,0 18,0 22 12 WNW - 10 -
02.07.2020 18:00:00 28,0 18,0 15 8 SW - 10 -
02.07.2020 17:00:00 30,0 18,3 9 5 SSW 1009,9 10 0,0
02.07.2020 16:00:00 29,0 18,0 8 4 - - 10 -
02.07.2020 15:00:00 29,0 18,0 5 3 - - 10 -
02.07.2020 14:00:00 28,5 18,8 4 2 - 1011,7 10 -
02.07.2020 13:00:00 28,0 19,0 5 3 - - 10 -
02.07.2020 12:00:00 26,0 19,0 5 3 - - 10 -
02.07.2020 11:00:00 25,6 18,9 5 3 E 1012,7 10 0,0
02.07.2020 10:00:00 24,0 20,0 4 2 - - 10 -
02.07.2020 09:00:00 23,0 19,0 4 2 - - 10 -
02.07.2020 08:00:00 21,2 18,1 4 2 - 1013,0 10 -
02.07.2020 07:00:00 19,0 18,0 5 3 SSW - 10 -
02.07.2020 06:00:00 19,0 17,0 9 5 NNW - 9 -
02.07.2020 05:00:00 19,2 18,4 5 3 NNW 1012,1 10 0,0
02.07.2020 04:00:00 20,0 20,0 2 1 - - 10 -
02.07.2020 03:00:00 20,0 19,0 4 2 - - 10 -
02.07.2020 02:00:00 21,3 19,6 5 3 N 1013,0 10 -
02.07.2020 01:00:00 22,0 20,0 4 2 - - 10 -
02.07.2020 00:00:00 21,0 20,0 13 7 ENE - 10 -
01.07.2020 23:00:00 22,1 20,3 9 5 SW 1013,2 10 0,0
01.07.2020 22:00:00 23,0 20,0 2 1 - - 8 -
01.07.2020 21:00:00 25,0 21,0 9 5 W - 10 -
01.07.2020 20:00:00 25,9 20,9 5 3 N 1011,1 10 -

tt = temperature
td = dewpoint
ff = wind speed
dd = wind direction
ppp = reduced air pressure
vv = visibility
rr = precipitation

Next stations